User: anonymous
Location: Sun City Center
(27.6996°N, 82.3528°W)
Time: 05:46:35
(UTC-04:00)
Language:

Cosmos 2084 Rocket - Orbit

View from above orbital plane
View from above orbital plane
View from above satellite
View from above satellite

Ground track
Ground track

The orbit data is extracted from the following two-line orbital elements,

1 20666U 90055D   14292.79466654  .00001549  00000-0  17169-3 0  3220
2 20666 062.7861 147.9736 0069841 004.3861 355.7828 14.89958287316312
Epoch (UTC): 19 October 2014 19:04:19
Eccentricity: 0.0069841
inclination: 62.7861°
perigee height: 549 km
apogee height: 647 km
right ascension of ascending node: 147.9736°
argument of perigee: 4.3861°
revolutions per day: 14.89958287
mean anomaly at epoch: 355.7828°
orbit number at epoch: 31631

The dashed part of the orbit path shows where the satellite is in the earth's shadow,  

DLR